AirNav   Pilot Hours Calculator
 
 502 users online  

NY22 NYPD Air Operations Heliport (Floyd Bennett Field)
New York, New York, USA

GOING TO NEW YORK?


FAA INFORMATION EFFECTIVE 15 JULY 2021

Location

FAA Identifier: NY22
Lat/Long: 40-35-25.2800N 073-52-54.5500W
40-35.421333N 073-52.909167W
40.5903556,-73.8818194
(estimated)
Elevation: 6 ft. / 2 m (estimated)
Variation: 13W (1985)
From city: 6 miles SE of NEW YORK, NY
Time zone: UTC -4 (UTC -5 during Standard Time)
Zip code: 11234

Heliport Operations

Heliport use: Private use. Permission required prior to landing
Activation date: 06/1940
Control tower: yes
ARTCC: NEW YORK CENTER
FSS: NEW YORK FLIGHT SERVICE STATION
Attendance: UNATNDD
Segmented circle: no
Lights: SS-SR

Heliport Communications

SSB: 164.3 381.8
WX ASOS at JFK (6 nm NE): 128.725 (718-656-0956)
WX AWOS-3PT at JRB (9 nm NW): 128.175 (212-425-1534)
WX ASOS at LGA (11 nm N): PHONE 718-672-6317
WX ASOS at EWR (14 nm NW): PHONE 973-621-2892
WX AWOS-3 at LDJ (17 nm W): 124.025 (908-862-7383)
WX ASOS at TEB (18 nm NW): PHONE 201-393-0855
  • USCG OPNS ON FREQS 164.3 & 381.8. USCG FREQS NOT MANNED CONT.

Nearby radio navigation aids

VOR radial/distance  VOR name  Freq  Var
CRIr168/1.4CANARSIE VOR/DME112.3011W
JFKr255/5.6KENNEDY VOR/DME115.9012W
LGAr195/11.6LA GUARDIA VOR/DME113.1012W
TEBr163/17.5TETERBORO VOR/DME108.4011W
COLr048/21.0COLTS NECK VOR/DME115.4011W
DPKr257/28.9DEER PARK VOR/DME117.7012W
RBVr060/36.4ROBBINSVILLE VORTAC113.8010W
SBJr099/39.2SOLBERG VOR/DME112.9010W

 
NDB name  Hdg/Dist  Freq  Var  ID
BABYLON272/23.227514WBBN -... -... -.
CHATHAM123/26.525413WCAT -.-. .- -
LAKEHURST043/38.839611WNEL -. . .-..

Heliport Services

Fuel available: A J5
FUEL: J5.
Bottled oxygen: NONE
Bulk oxygen: NONE

Runway Information

Helipad H1

Dimensions: 70 x 70 ft. / 21 x 21 m
Surface: concrete
Runway edge lights: PERI
Runway edge markings: WHITE PAINTED MALTESE CROSS.
Latitude: 40-35.421333N
Longitude: 073-52.909167W
Elevation: 6.0 ft.
Traffic pattern: leftleft
Markings: NSTD

Heliport Ownership and Management from official FAA records

Ownership: Publicly-owned
Owner: CITY OF NEW YORK-NYPD
1 POLICE PLAZA
NEW YORK, NY 10038
Phone 718-692-1220
Manager: COMMANDING OFFICER-AVIATION UNIT
FLOYD BENNETT FIELD
BROOKLYN, NY 11234-7097
Phone 718-692-1220

Heliport Operational Statistics

Aircraft based on the field: 7
Helicopters: 7
    

Additional Remarks

A52-H1 RY H1 OBST LGT ON CG BLDG LCTD E SIDE FLD ADJ TO WATER ONLY, ABD BLDG ON FLD UNLGTD.
FOR CD CTC NEW YORK APCH AT 516-683-2962.
OFFL BUS ONLY. RESCUE MISSION ACFT EXEMPTED.
HEAVY CONENTRATION OF LARGE BIRDS INVOF HELIPAD.
OBST LGT ON CG BLDG LCTD ON E SIDE OF FIELD ADJ TO WATER ONLY.
ABANDONED BLDGS ON FLD UNLGTD.
REMOTE CONTROL AIRCRAFT ARE FLOWN SR-SS AT NORTHERN EDGE OF HELIPORT.

Instrument Procedures

There are no published instrument procedures at NY22.

Some nearby airports with instrument procedures:

KJFK - John F Kennedy International Airport (6 nm NE)
KJRB - Downtown Manhattan/Wall Street Heliport (9 nm NW)
6N5 - East 34th Street Heliport (10 nm NW)
KLGA - LaGuardia Airport (11 nm N)
KJRA - West 30th St Heliport (11 nm NW)
KEWR - Newark Liberty International Airport (14 nm NW)
KLDJ - Linden Airport (17 nm W)
KTEB - Teterboro Airport (18 nm NW)
 
Loc | Ops | Rwys | IFR | FBO | Links
Com | Nav | Svcs | Stats | Notes
Area around NY22 (NYPD Air Operations Heliport (Floyd Bennett Field))
 
Road maps at: MapQuest Bing Google
 
Aerial photo
WARNING: Photo may not be current or correct
Aerial photo of NY22 (NYPD Air Operations Heliport (Floyd Bennett Field))
Photo courtesy of AirNav, LLC
Photo taken 18-Oct-2013
looking north.

Do you have a better or more recent aerial photo of NYPD Air Operations Heliport (Floyd Bennett Field) that you would like to share? If so, please send us your photo.

 
Sectional chart

 
Airport distance calculator
Flying to NYPD Air Operations Heliport (Floyd Bennett Field)? Find the distance to fly.

From to NY22

Sunrise and sunset
Times for 01-Aug-2021
 Local
(UTC-4)
 Zulu
(UTC)
Morning civil twilight05:2309:23
Sunrise05:5309:53
Sunset20:1000:10
Evening civil twilight20:4100:41

Current date and time
Zulu (UTC)  01-Aug-2021 06:38:31
Local (UTC-4)  01-Aug-2021 02:38:31
 
METAR
KJFK 
6nm NE 
010551Z 23006KT 10SM BKN170 19/16 A2994 RMK AO2 SLP140 T01940161 10211 20189 58005
KJRB 
9nm NW 
010556Z AUTO 24004KT 10SM CLR 21/16 A2994 RMK AO2 SLP138 T02110156 10239 20211 58004
KLGA 
12nm N 
010551Z 19005KT 10SM SCT250 22/14 A2993 RMK AO2 SLP133 T02170139 10244 20217 58006
KNYC 
12nm N 
010551Z AUTO 24003KT 10SM CLR 21/13 A2996 RMK AO2 SLP136 T02110133 10233 20206 58006 $
KEWR 
14nm NW 
010551Z 17003KT 10SM FEW170 21/14 A2993 RMK AO2 SLP134 T02060144 10250 20194 58005
KLDJ 
17nm W 
010615Z AUTO 00000KT 10SM CLR 19/14 A2993 RMK AO2 T01900135
KTEB 
18nm NW 
010551Z 00000KT 10SM CLR 18/13 A2992 RMK AO2 SLP131 T01830133 10222 20172 58005
TAF
KJFK 
6nm NE 
010522Z 0106/0212 19004KT P6SM FEW150 FM011300 17009KT P6SM SCT070 BKN150 FM011800 16010KT P6SM VCSH SCT025 BKN070 PROB30 0118/0124 6SM -SHRA BR BKN015 BKN025 FM020300 VRB04KT P6SM VCSH SCT015 BKN040 FM020600 31008KT P6SM FEW015 SCT035
KLGA 
12nm N 
010522Z 0106/0212 VRB04KT P6SM FEW150 FM011300 17008KT P6SM SCT070 BKN150 FM011800 16009KT P6SM VCSH SCT025 BKN070 PROB30 0118/0124 6SM -SHRA FM020300 VRB04KT P6SM VCSH SCT015 BKN040 FM020600 32007KT P6SM FEW015 SCT035
KEWR 
14nm NW 
010522Z 0106/0212 VRB04KT P6SM FEW150 FM011300 17007KT P6SM SCT070 BKN150 FM011800 16008KT P6SM VCSH SCT025 BKN070 PROB30 0118/0124 6SM -SHRA FM020300 VRB04KT P6SM VCSH SCT015 BKN040 FM020600 32007KT P6SM FEW015 SCT035
KTEB 
18nm NW 
010522Z 0106/0212 VRB03KT P6SM FEW150 FM011400 17006KT P6SM SCT070 BKN150 FM011800 17007KT P6SM VCSH SCT025 BKN070 PROB30 0118/0124 6SM -SHRA FM020300 VRB03KT P6SM VCSH SCT015 BKN040 FM020600 32005KT P6SM FEW015 SCT035
NOTAMs
Click for the latest NOTAMs
NOTAMs are issued by the DoD/FAA and will open in a separate window not controlled by AirNav.

 

 
 

Would you like to see your business listed on this page?

 If your business provides an interesting product or service to pilots, flight crews, aircraft, or users of the NYPD Air Operations Heliport (Floyd Bennett Field), you should consider listing it here.  To start the listing process, click on the button below
 
Add a business
 

Other Pages about NYPD Air Operations Heliport (Floyd Bennett Field)

aeroweb.brooklyn.cuny.edu/...
 
Update a link
 
Copyright © AirNav, LLC. All rights reserved. Privacy Policy  Contact